| time (UTC) | temp C | wind direction | speed KPH | gust KPH | rain 1hr cm | rain 24hr cm | rain mn cm | humidity % | barometer mb |
| 20260506203804 | 11 | 69 | 0.0 | 0.0 | 0.00 | 0.00 | 0.00 | 79 | 1011.3 |
| 20260506202803 | 11 | 69 | 0.0 | 0.0 | 0.00 | 0.00 | 0.00 | 79 | 1011.3 |
| 20260506201803 | 11 | 69 | 0.0 | 3.2 | 0.00 | 0.00 | 0.00 | 78 | 1011.2 |
| 20260506200801 | 11 | 69 | 1.6 | 3.2 | 0.00 | 0.00 | 0.00 | 77 | 1011.1 |
| 20260506200245 | 11 | 69 | 1.6 | 3.2 | 0.00 | 0.00 | 0.00 | 77 | 1011.0 |
| 20260506195235 | 11 | 69 | 0.0 | 1.6 | 0.00 | 0.00 | 0.00 | 77 | 1010.9 |
| 20260506193759 | 11 | 69 | 0.0 | 1.6 | 0.00 | 0.00 | 0.00 | 75 | 1010.8 |
| 20260506192759 | 11 | 69 | 0.0 | 3.2 | 0.00 | 0.00 | 0.00 | 74 | 1010.7 |
| 20260506191801 | 11 | 69 | 0.0 | 4.8 | 0.00 | 0.00 | 0.00 | 75 | 1010.7 |
| 20260506190800 | 12 | 69 | 1.6 | 4.8 | 0.00 | 0.00 | 0.00 | 74 | 1010.5 |
| 20260506185757 | 12 | 69 | 3.2 | 4.8 | 0.00 | 0.00 | 0.00 | 72 | 1010.4 |
| 20260506184759 | 12 | 69 | 3.2 | 6.4 | 0.00 | 0.00 | 0.00 | 72 | 1010.3 |
| 20260506183757 | 12 | 69 | 3.2 | 6.4 | 0.00 | 0.00 | 0.00 | 71 | 1010.2 |
| 20260506182757 | 12 | 68 | 4.8 | 11.3 | 0.00 | 0.00 | 0.00 | 72 | 1010.1 |
| 20260506181755 | 12 | 75 | 3.2 | 6.4 | 0.00 | 0.00 | 0.00 | 72 | 1010.0 |
| 20260506180753 | 12 | 75 | 4.8 | 8.0 | 0.00 | 0.00 | 0.00 | 71 | 1009.9 |
| 20260506175752 | 12 | 75 | 4.8 | 8.0 | 0.00 | 0.00 | 0.00 | 70 | 1009.8 |
| 20260506174752 | 12 | 76 | 6.4 | 16.1 | 0.00 | 0.00 | 0.00 | 69 | 1009.7 |
| 20260506173751 | 12 | 69 | 9.7 | 16.1 | 0.00 | 0.00 | 0.00 | 69 | 1009.6 |
| 20260506172751 | 12 | 70 | 12.9 | 19.3 | 0.00 | 0.00 | 0.00 | 69 | 1009.5 |
| 20260506171753 | 12 | 73 | 12.9 | 20.9 | 0.00 | 0.00 | 0.00 | 67 | 1009.4 |
| 20260506170751 | 12 | 63 | 8.0 | 16.1 | 0.00 | 0.00 | 0.00 | 68 | 1009.4 |
| 20260506165741 | 13 | 65 | 9.7 | 20.9 | 0.00 | 0.00 | 0.00 | 66 | 1009.3 |
| 20260506165223 | 13 | 71 | 11.3 | 20.9 | 0.00 | 0.00 | 0.00 | 67 | 1009.2 |
| 20260506163741 | 13 | 59 | 8.0 | 16.1 | 0.00 | 0.00 | 0.00 | 66 | 1009.1 |
| 20260506162743 | 13 | 63 | 6.4 | 14.5 | 0.00 | 0.00 | 0.00 | 66 | 1009.1 |
| 20260506161741 | 13 | 74 | 8.0 | 20.9 | 0.00 | 0.00 | 0.00 | 65 | 1009.1 |
| 20260506161219 | 13 | 59 | 14.5 | 22.5 | 0.00 | 0.00 | 0.00 | 66 | 1009.1 |
| 20260506155743 | 13 | 48 | 12.9 | 22.5 | 0.00 | 0.00 | 0.00 | 66 | 1009.0 |
| 20260506154741 | 13 | 63 | 11.3 | 22.5 | 0.00 | 0.00 | 0.00 | 65 | 1009.0 |
| 20260506153741 | 13 | 64 | 14.5 | 25.7 | 0.00 | 0.00 | 0.00 | 63 | 1009.1 |
| 20260506152739 | 14 | 64 | 16.1 | 29.0 | 0.00 | 0.00 | 0.00 | 62 | 1009.0 |
| 20260506151741 | 14 | 57 | 9.7 | 22.5 | 0.00 | 0.00 | 0.00 | 62 | 1008.9 |
| 20260506150741 | 14 | 69 | 12.9 | 29.0 | 0.00 | 0.00 | 0.00 | 62 | 1008.9 |
| 20260506145739 | 14 | 42 | 8.0 | 20.9 | 0.00 | 0.00 | 0.00 | 61 | 1008.9 |
| 20260506144740 | 14 | 32 | 6.4 | 16.1 | 0.00 | 0.00 | 0.00 | 59 | 1008.8 |
| 20260506143741 | 14 | 63 | 8.0 | 19.3 | 0.00 | 0.00 | 0.00 | 59 | 1008.8 |
| 20260506142739 | 14 | 68 | 8.0 | 20.9 | 0.00 | 0.00 | 0.00 | 62 | 1008.7 |
| 20260506141739 | 14 | 19 | 6.4 | 16.1 | 0.00 | 0.00 | 0.00 | 64 | 1008.7 |
| 20260506140739 | 14 | 64 | 8.0 | 17.7 | 0.00 | 0.00 | 0.00 | 65 | 1008.8 |
| 20260506135739 | 15 | 0 | 8.0 | 24.1 | 0.00 | 0.00 | 0.00 | 65 | 1008.7 |
| 20260506134741 | 15 | 59 | 4.8 | 14.5 | 0.00 | 0.00 | 0.00 | 64 | 1008.7 |
| 20260506133737 | 15 | 44 | 8.0 | 20.9 | 0.00 | 0.00 | 0.00 | 65 | 1008.6 |
| 20260506133215 | 15 | 355 | 6.4 | 17.7 | 0.00 | 0.00 | 0.00 | 66 | 1008.6 |
| 20260506131737 | 15 | 13 | 8.0 | 20.9 | 0.00 | 0.00 | 0.00 | 66 | 1008.6 |
| 20260506130737 | 15 | 55 | 8.0 | 17.7 | 0.00 | 0.00 | 0.00 | 65 | 1008.6 |
| 20260506125737 | 15 | 62 | 6.4 | 17.7 | 0.00 | 0.00 | 0.00 | 67 | 1008.5 |
| 20260506124737 | 15 | 69 | 8.0 | 17.7 | 0.00 | 0.00 | 0.00 | 67 | 1008.4 |
| 20260506124214 | 14 | 347 | 6.4 | 16.1 | 0.00 | 0.00 | 0.00 | 69 | 1008.4 |
| 20260506122737 | 14 | 72 | 6.4 | 16.1 | 0.00 | 0.00 | 0.00 | 68 | 1008.3 |
| 20260506121737 | 14 | 49 | 3.2 | 12.9 | 0.00 | 0.00 | 0.00 | 63 | 1008.4 |
| 20260506120737 | 15 | 134 | 3.2 | 14.5 | 0.00 | 0.00 | 0.00 | 67 | 1008.4 |
| 20260506115739 | 15 | 10 | 6.4 | 17.7 | 0.00 | 0.00 | 0.00 | 64 | 1008.2 |
| 20260506114737 | 16 | 329 | 6.4 | 19.3 | 0.00 | 0.00 | 0.00 | 68 | 1008.2 |
| 20260506114212 | 16 | 33 | 6.4 | 17.7 | 0.00 | 0.00 | 0.00 | 67 | 1008.1 |
| 20260506112735 | 15 | 21 | 4.8 | 14.5 | 0.00 | 0.00 | 0.00 | 70 | 1008.1 |
| 20260506111737 | 15 | 11 | 3.2 | 14.5 | 0.00 | 0.00 | 0.00 | 69 | 1008.2 |
| 20260506110735 | 14 | 345 | 4.8 | 14.5 | 0.00 | 0.00 | 0.00 | 72 | 1008.1 |
| 20260506105733 | 13 | 63 | 4.8 | 11.3 | 0.00 | 0.00 | 0.00 | 70 | 1008.1 |
| 20260506105209 | 13 | 350 | 3.2 | 9.7 | 0.00 | 0.00 | 0.00 | 72 | 1008.2 |
| 20260506102733 | 13 | 16 | 3.2 | 8.0 | 0.00 | 0.00 | 0.00 | 75 | 1008.2 |
| 20260506101732 | 13 | 351 | 3.2 | 12.9 | 0.00 | 0.00 | 0.00 | 75 | 1008.1 |
| 20260506100735 | 13 | 11 | 6.4 | 14.5 | 0.00 | 0.00 | 0.00 | 77 | 1008.0 |
| 20260506094731 | 14 | 327 | 4.8 | 17.7 | 0.00 | 0.00 | 0.00 | 74 | 1008.0 |
| 20260506093732 | 14 | 248 | 4.8 | 17.7 | 0.00 | 0.00 | 0.00 | 76 | 1007.9 |
| 20260506093216 | 14 | 266 | 6.4 | 16.1 | 0.00 | 0.00 | 0.00 | 77 | 1008.0 |
| 20260506091732 | 14 | 329 | 4.8 | 14.5 | 0.00 | 0.00 | 0.00 | 77 | 1008.0 |
| 20260506085731 | 13 | 200 | 3.2 | 11.3 | 0.00 | 0.00 | 0.00 | 81 | 1007.8 |
| 20260506084730 | 13 | 46 | 4.8 | 16.1 | 0.00 | 0.00 | 0.00 | 82 | 1007.9 |
| 20260506083732 | 12 | 38 | 4.8 | 14.5 | 0.00 | 0.00 | 0.00 | 83 | 1007.8 |
| 20260506082730 | 12 | 28 | 4.8 | 14.5 | 0.00 | 0.00 | 0.00 | 83 | 1007.7 |
| 20260506081729 | 12 | 67 | 3.2 | 14.5 | 0.00 | 0.00 | 0.00 | 86 | 1007.7 |
| 20260506080730 | 12 | 322 | 3.2 | 12.9 | 0.00 | 0.00 | 0.00 | 85 | 1007.7 |
| 20260506072729 | 11 | 311 | 3.2 | 12.9 | 0.00 | 0.00 | 0.00 | 90 | 1007.6 |
| 20260506071730 | 11 | 321 | 4.8 | 11.3 | 0.00 | 0.00 | 0.00 | 91 | 1007.7 |
| 20260506070727 | 11 | 333 | 3.2 | 9.7 | 0.00 | 0.00 | 0.00 | 92 | 1007.6 |
| 20260506061726 | 10 | 323 | 3.2 | 9.7 | 0.00 | 0.00 | 0.00 | 98 | 1007.5 |
| 20260506060724 | 9 | 288 | 3.2 | 12.9 | 0.00 | 0.00 | 0.00 | 98 | 1007.4 |
| 20260506050722 | 9 | 316 | 3.2 | 8.0 | 0.00 | 0.00 | 0.00 | 97 | 1007.4 |
| 20260506044723 | 9 | 25 | 3.2 | 9.7 | 0.00 | 0.00 | 0.00 | 96 | 1007.5 |
| 20260506043723 | 9 | 19 | 1.6 | 9.7 | 0.00 | 0.00 | 0.00 | 96 | 1007.5 |
| 20260506042723 | 9 | 5 | 1.6 | 8.0 | 0.00 | 0.00 | 0.00 | 95 | 1007.5 |
| 20260506041718 | 9 | 355 | 1.6 | 11.3 | 0.00 | 0.00 | 0.00 | 94 | 1007.5 |
| 20260506040719 | 9 | 339 | 3.2 | 9.7 | 0.00 | 0.00 | 0.00 | 93 | 1007.5 |
| 20260506035719 | 9 | 45 | 3.2 | 8.0 | 0.00 | 0.00 | 0.00 | 92 | 1007.4 |
| 20260506034720 | 9 | 39 | 3.2 | 9.7 | 0.00 | 0.00 | 0.00 | 91 | 1007.5 |
| 20260506033718 | 9 | 46 | 3.2 | 12.9 | 0.00 | 0.00 | 0.00 | 90 | 1007.5 |
| 20260506031717 | 9 | 355 | 3.2 | 12.9 | 0.00 | 0.00 | 0.00 | 89 | 1007.6 |
| 20260506030716 | 9 | 309 | 4.8 | 16.1 | 0.00 | 0.00 | 0.00 | 89 | 1007.6 |
| 20260506025718 | 9 | 336 | 4.8 | 9.7 | 0.00 | 0.00 | 0.00 | 90 | 1007.6 |
| 20260506024717 | 9 | 53 | 3.2 | 9.7 | 0.00 | 0.00 | 0.00 | 90 | 1007.7 |
| 20260506023716 | 9 | 294 | 4.8 | 12.9 | 0.00 | 0.00 | 0.00 | 90 | 1007.8 |
| 20260506022718 | 9 | 355 | 3.2 | 12.9 | 0.00 | 0.00 | 0.00 | 90 | 1007.8 |
| 20260506021717 | 9 | 327 | 3.2 | 11.3 | 0.00 | 0.00 | 0.00 | 90 | 1007.9 |
| 20260506020717 | 9 | 294 | 3.2 | 9.7 | 0.00 | 0.00 | 0.00 | 89 | 1007.9 |
| 20260506015717 | 9 | 315 | 3.2 | 9.7 | 0.00 | 0.00 | 0.00 | 89 | 1007.9 |
| 20260506014717 | 9 | 296 | 3.2 | 9.7 | 0.00 | 0.00 | 0.00 | 88 | 1007.9 |
| 20260506013716 | 9 | 327 | 3.2 | 9.7 | 0.00 | 0.00 | 0.00 | 88 | 1007.9 |
| 20260506012717 | 9 | 321 | 3.2 | 9.7 | 0.00 | 0.00 | 0.00 | 88 | 1007.9 |
| 20260506011715 | 9 | 320 | 3.2 | 11.3 | 0.00 | 0.00 | 0.00 | 88 | 1007.9 |
| 20260506010715 | 9 | 305 | 3.2 | 12.9 | 0.00 | 0.00 | 0.00 | 87 | 1008.0 |
| 20260506005714 | 9 | 355 | 3.2 | 11.3 | 0.00 | 0.00 | 0.00 | 88 | 1008.1 |
| 20260506004716 | 9 | 355 | 4.8 | 11.3 | 0.00 | 0.00 | 0.00 | 87 | 1008.2 |
| 20260506003714 | 9 | 32 | 3.2 | 14.5 | 0.00 | 0.00 | 0.00 | 87 | 1008.3 |
| 20260506002714 | 9 | 32 | 3.2 | 12.9 | 0.00 | 0.00 | 0.00 | 87 | 1008.3 |
| 20260506001712 | 9 | 300 | 3.2 | 8.0 | 0.00 | 0.00 | 0.00 | 87 | 1008.4 |
| 20260506000158 | 9 | 306 | 3.2 | 8.0 | 0.00 | 0.00 | 0.00 | 87 | 1008.6 |
| 20260505235149 | 8 | 333 | 3.2 | 8.0 | 0.00 | 0.00 | 0.00 | 88 | 1008.6 |
| 20260505233709 | 8 | 308 | 1.6 | 8.0 | 0.00 | 0.00 | 0.00 | 88 | 1008.6 |
| 20260505233154 | 8 | 50 | 1.6 | 4.8 | 0.00 | 0.00 | 0.00 | 87 | 1008.7 |
| 20260505231708 | 8 | 348 | 1.6 | 4.8 | 0.00 | 0.00 | 0.00 | 87 | 1008.7 |
| 20260505230709 | 8 | 355 | 1.6 | 4.8 | 0.00 | 0.00 | 0.00 | 87 | 1008.8 |
| 20260505224710 | 8 | 5 | 1.6 | 6.4 | 0.00 | 0.00 | 0.00 | 87 | 1008.8 |
| 20260505223710 | 9 | 28 | 3.2 | 9.7 | 0.00 | 0.00 | 0.00 | 87 | 1008.9 |
| 20260505222710 | 9 | 15 | 1.6 | 11.3 | 0.00 | 0.00 | 0.00 | 87 | 1009.0 |
| 20260505222147 | 9 | 344 | 3.2 | 8.0 | 0.00 | 0.00 | 0.00 | 87 | 1008.9 |
| 20260505220708 | 9 | 11 | 3.2 | 9.7 | 0.00 | 0.00 | 0.00 | 87 | 1009.0 |
| 20260505215708 | 9 | 348 | 1.6 | 6.4 | 0.00 | 0.00 | 0.00 | 87 | 1009.0 |
| 20260505214708 | 10 | 342 | 3.2 | 6.4 | 0.00 | 0.00 | 0.00 | 86 | 1009.1 |
| 20260505214147 | 10 | 268 | 3.2 | 9.7 | 0.00 | 0.00 | 0.00 | 86 | 1009.1 |
| 20260505212712 | 10 | 32 | 1.6 | 8.0 | 0.00 | 0.00 | 0.00 | 85 | 1009.1 |
| 20260505211709 | 10 | 19 | 3.2 | 14.5 | 0.00 | 0.00 | 0.00 | 85 | 1009.2 |
| 20260505210708 | 10 | 28 | 3.2 | 9.7 | 0.00 | 0.00 | 0.00 | 85 | 1009.1 |
| 20260505205709 | 10 | 17 | 3.2 | 14.5 | 0.00 | 0.00 | 0.00 | 84 | 1009.2 |
| 20260505204708 | 10 | 38 | 4.8 | 14.5 | 0.00 | 0.00 | 0.00 | 84 | 1009.2 |